Theta_e
303 303 304 304 304 305 306 306 306 305 304 304 304 304 303 300 298 297 297 299 300 303 302 301 303 305 304 304 304 303 303 307 306 306 306 306 307 306 306 304 304 304 303 302 302 301 302 303 305 307 307 309 309 308 308 308 307 308 309 310 310 310 310 312 312 317 321 327 328 325 323 321 321 321
304 305 304 305 305 305 305 306 306 305 305 305 305 304 303 303 302 299 298 299 300 303 303 302 300 303 302 301 302 302 302 307 304 304 304 305 305 304 304 304 303 303 302 301 301 301 301 302 303 306 305 306 307 306 307 307 307 307 307 307 308 309 312 312 314 317 320 322 322 321 320 320 320 320
305 304 303 303 303 304 304 304 304 305 304 304 304 304 304 304 304 302 300 298 301 303 302 303 303 301 302 299 301 301 301 303 303 303 304 303 304 304 303 303 304 303 302 301 301 301 302 301 301 302 304 305 305 304 306 307 306 306 306 305 307 309 311 312 314 316 319 319 320 320 319 320 320 320
303 303 302 302 302 302 303 303 303 304 304 304 304 304 303 302 302 302 300 299 299 303 303 303 301 299 302 299 298 299 299 300 303 301 302 303 303 302 302 302 302 303 302 301 301 301 301 300 300 299 300 300 302 301 302 304 305 304 304 304 305 306 309 310 312 315 318 319 319 319 317 318 319 318
303 302 302 302 302 302 303 303 302 302 302 303 303 302 302 302 302 302 301 299 299 301 301 302 299 299 300 297 297 297 299 300 301 301 301 302 302 301 301 302 301 302 301 300 300 300 299 298 299 298 298 299 300 300 300 302 302 302 300 301 302 305 307 308 308 310 313 315 316 316 316 316 316 317
303 302 302 302 303 301 302 302 301 301 301 300 300 301 301 301 301 302 301 300 299 297 300 300 299 296 299 296 297 297 299 299 300 298 300 300 300 300 301 301 302 301 301 300 299 300 299 299 298 298 298 298 298 299 299 298 298 299 299 299 300 304 304 304 305 305 307 309 312 313 314 314 315 317
302 302 303 303 303 302 303 302 302 301 300 300 300 300 300 299 299 299 299 299 297 295 295 298 296 296 297 297 295 297 298 299 298 298 299 299 299 300 301 300 301 300 300 299 299 299 298 298 298 297 298 298 297 298 298 298 298 298 299 299 299 299 299 299 300 301 302 305 309 310 311 312 314 317
303 303 302 303 302 303 302 301 301 301 301 300 300 299 299 299 298 299 298 299 299 297 293 295 294 295 296 296 296 296 297 297 297 297 298 299 298 299 299 300 300 300 301 300 299 299 299 298 297 297 297 297 298 297 297 298 298 298 299 299 299 298 298 298 299 299 302 305 306 307 307 309 313 317
304 303 303 303 302 302 302 301 301 300 300 298 299 298 298 298 299 298 297 296 295 294 294 295 297 295 295 295 297 296 295 296 296 297 297 298 298 298 299 299 300 300 300 299 299 298 297 297 297 297 297 297 297 297 297 298 298 299 299 299 298 298 298 297 298 299 299 299 300 305 306 307 310 314
304 304 304 303 303 302 303 302 301 300 299 298 298 298 297 297 296 296 295 295 295 294 293 294 296 295 295 295 296 296 296 296 295 296 297 297 298 297 298 298 299 300 301 301 300 299 298 298 297 298 298 297 296 297 298 298 299 299 299 298 298 298 298 297 297 298 299 299 298 299 303 306 308 312
305 304 304 303 303 303 303 302 302 300 299 299 297 298 297 295 295 294 295 294 294 294 295 293 293 294 295 294 294 295 296 296 295 295 295 296 296 297 296 296 298 299 301 299 296 297 297 298 298 298 297 297 298 298 298 298 299 298 298 297 297 297 297 297 297 298 299 300 299 298 298 301 305 308
306 306 305 304 304 304 303 303 303 302 299 299 298 297 296 295 294 294 294 294 294 294 294 293 294 293 293 294 294 294 294 294 294 294 294 293 294 295 296 296 296 298 299 298 297 297 297 297 297 296 297 297 297 298 298 299 299 299 297 296 296 297 297 297 297 298 299 300 299 298 298 298 299 305
306 306 306 305 304 306 306 303 303 303 301 299 298 297 296 296 296 295 295 293 293 293 295 295 293 293 294 293 293 293 293 292 292 294 294 293 294 294 294 296 297 298 296 296 295 295 296 295 297 297 297 298 299 299 298 299 298 298 296 296 296 297 297 297 297 298 299 300 299 298 298 298 298 297
306 306 306 306 307 306 306 302 299 297 298 300 299 296 297 297 296 295 295 294 295 296 296 295 294 294 293 293 293 292 293 293 294 293 293 292 293 293 293 295 297 297 295 293 293 293 295 295 296 296 296 298 299 299 299 298 298 297 296 296 296 296 297 297 297 298 299 299 298 298 298 297 297 296
307 307 307 306 307 307 305 304 297 295 295 295 295 295 296 297 297 296 295 295 294 296 296 293 293 293 293 293 292 293 292 293 292 292 292 292 292 291 289 288 293 297 294 292 291 292 295 295 293 294 295 297 298 298 298 296 296 296 295 295 296 296 297 297 298 298 298 298 298 298 297 298 298 296
308 308 307 305 305 306 306 304 300 297 294 293 293 292 292 291 291 294 298 296 293 294 294 293 293 293 293 292 292 293 293 293 292 292 291 291 290 290 289 289 288 293 295 292 291 291 295 295 294 294 295 296 297 297 296 295 295 295 295 295 296 297 297 297 297 297 296 296 296 296 296 296 296 295
307 306 306 304 303 304 306 305 300 299 297 293 293 293 293 293 291 289 290 293 298 295 295 295 292 292 292 292 293 294 294 294 291 291 290 290 290 289 289 289 289 292 294 292 290 290 293 293 293 292 295 296 297 297 296 295 295 295 295 295 296 296 296 296 296 296 295 295 295 295 295 295 294 294
306 305 304 303 302 301 303 300 298 297 297 296 295 295 296 296 295 292 290 290 291 294 295 294 293 293 293 294 294 295 295 292 291 290 289 290 289 289 289 291 291 292 294 291 290 289 291 293 292 291 294 296 296 297 296 294 294 295 294 294 294 295 296 296 295 295 295 294 295 295 295 294 293 293
303 303 303 303 301 300 299 299 297 297 297 297 296 295 294 294 293 294 294 294 295 294 293 294 294 293 294 294 294 294 294 293 293 292 291 291 290 290 291 290 291 291 293 293 291 287 290 293 291 292 293 295 295 296 295 295 294 295 294 294 294 295 295 295 295 295 295 295 295 295 294 293 293 293
299 300 300 300 299 299 297 296 294 296 298 297 295 293 292 292 292 293 293 292 293 294 294 294 294 294 293 293 294 294 293 292 292 292 292 291 290 288 288 287 290 289 292 293 290 288 289 292 291 291 294 294 294 296 297 295 295 295 294 293 294 294 295 295 295 295 295 295 295 295 294 294 293 293
298 299 298 297 296 295 296 293 292 293 295 296 293 292 291 291 290 290 292 291 290 290 290 290 290 290 290 290 290 290 290 292 292 291 289 289 289 288 287 287 288 288 290 292 292 290 288 292 291 291 293 294 294 295 296 298 294 294 294 293 293 294 295 295 295 295 295 295 295 295 294 294 294 294
295 298 298 296 294 294 294 290 290 291 294 294 293 292 291 290 290 290 290 291 291 290 290 290 289 289 289 290 290 290 290 290 291 290 288 290 289 287 287 286 287 288 289 291 293 290 289 291 292 290 292 293 294 295 296 296 297 295 295 293 291 292 294 295 295 295 295 295 295 295 294 294 294 299
291 292 295 295 295 294 292 289 290 290 293 294 293 292 291 290 289 290 290 290 290 291 291 290 291 290 290 291 291 292 290 289 291 292 290 290 288 287 287 287 287 286 287 291 293 289 289 289 291 291 289 288 291 294 295 296 295 295 297 296 296 294 294 294 294 295 295 295 294 294 294 293 294 300
290 290 291 292 289 289 289 289 289 289 290 292 292 292 291 290 290 290 290 291 290 289 289 289 289 289 289 289 289 289 289 290 292 292 291 290 289 288 287 287 287 285 286 291 294 289 289 290 289 292 290 286 285 291 293 293 295 297 297 296 297 295 295 294 295 295 294 294 294 294 294 294 293 299
289 289 290 291 290 288 289 289 289 289 289 290 292 291 291 291 291 289 289 290 289 289 290 289 289 289 289 288 288 288 288 290 291 292 291 292 291 289 288 287 287 287 288 291 291 291 288 290 288 290 289 289 289 289 291 292 294 295 296 297 296 296 297 297 297 299 296 294 293 293 293 293 293 296
289 289 289 290 289 288 288 288 288 289 289 289 291 289 287 286 287 291 290 289 289 288 288 288 288 288 287 287 287 288 289 289 290 290 290 290 290 290 290 288 287 286 287 291 290 291 289 288 289 288 289 288 288 289 288 289 291 293 295 296 296 295 296 296 297 298 299 299 298 295 295 293 293 293
289 290 290 291 289 288 288 288 288 288 288 289 289 287 287 287 287 289 289 289 287 288 287 287 287 287 287 286 287 287 287 288 289 289 289 290 290 290 290 291 291 289 290 291 292 292 290 289 290 289 288 289 287 288 287 287 289 294 293 294 296 296 297 296 296 297 299 298 298 294 293 292 291 291
290 290 290 290 288 288 288 288 288 287 288 288 287 288 287 287 287 289 288 287 287 286 286 286 286 286 286 286 286 287 287 287 288 288 288 289 289 289 289 290 290 291 291 291 291 291 291 289 290 291 290 288 287 285 285 289 289 290 290 293 294 295 296 296 296 296 296 297 297 297 296 295 295 294
290 289 288 288 288 288 288 287 287 287 287 286 287 287 287 289 288 288 287 287 287 286 286 286 286 286 286 286 286 287 287 287 287 287 288 288 289 289 289 289 290 290 290 291 291 291 291 290 290 290 290 289 288 287 287 286 287 288 290 290 291 294 295 296 296 295 296 297 297 297 296 296 295 294
288 288 288 288 288 288 288 289 288 288 288 287 287 287 287 287 287 287 287 287 286 286 286 285 285 286 286 286 287 287 287 286 286 286 286 287 287 288 288 287 288 289 290 291 291 291 291 290 290 290 289 289 288 287 287 287 286 288 290 290 291 294 295 295 295 295 294 294 295 296 297 295 295 295
289 289 289 288 287 287 286 286 286 286 286 287 286 286 286 287 286 287 287 287 286 286 285 285 285 286 286 287 287 286 286 286 287 288 287 286 286 287 287 286 286 287 289 290 291 291 291 291 291 290 288 287 288 288 288 288 287 287 289 291 292 288 292 295 295 294 295 294 294 291 290 290 291 290
289 288 287 286 287 286 286 285 285 285 285 285 284 286 286 286 286 286 286 287 286 286 286 285 285 286 286 286 286 286 286 286 287 288 287 287 286 287 287 285 285 286 287 288 289 290 289 291 290 290 289 288 287 287 288 288 287 288 289 291 291 293 294 293 293 294 294 292 290 291 293 293 293 294
286 286 286 285 285 284 283 282 283 284 284 283 284 284 286 286 286 286 286 285 285 286 285 285 285 285 286 286 287 286 286 287 287 288 287 287 286 287 286 285 285 285 284 285 287 289 290 290 291 290 290 290 289 288 287 285 287 289 289 289 290 290 292 294 294 293 294 291 291 292 292 294 293 293
285 284 284 283 283 283 283 282 281 281 281 281 282 283 283 284 285 285 285 285 285 285 284 285 285 285 285 285 286 286 286 286 287 287 287 286 287 285 285 284 284 285 285 285 286 287 288 289 289 290 290 290 290 290 289 287 286 287 288 289 290 289 291 293 293 293 293 292 291 290 290 291 292 292
284 283 283 282 281 281 281 280 281 280 280 281 281 283 283 284 283 283 284 285 284 284 284 284 285 285 285 285 285 285 285 285 286 286 287 287 286 285 285 284 284 285 285 285 286 287 287 287 287 286 287 287 287 289 292 291 288 288 289 289 290 290 290 292 292 292 292 291 291 289 289 290 290 292
283 283 283 281 280 280 281 280 279 280 281 281 282 282 283 283 283 283 284 285 285 284 284 284 285 285 285 285 285 285 286 285 285 286 286 286 285 285 285 285 285 285 285 285 286 287 287 286 286 285 283 283 283 282 285 291 291 290 289 288 290 290 290 291 291 291 290 290 290 289 288 288 289 291
283 282 282 282 281 281 281 281 281 282 283 283 283 283 283 283 284 285 285 284 284 284 284 285 285 285 285 285 285 285 286 285 285 285 285 285 285 285 284 284 285 285 285 286 286 286 287 286 286 285 283 282 281 281 283 287 291 292 292 289 289 290 289 289 289 288 289 290 290 289 288 288 288 289
282 281 282 283 283 284 283 282 280 281 283 283 283 283 284 285 285 285 285 285 284 284 285 285 285 285 285 285 285 285 285 286 285 285 285 285 284 284 284 284 284 285 285 286 286 286 287 286 285 285 284 282 281 281 282 286 287 289 291 291 288 288 288 287 286 287 288 289 288 289 289 288 287 287
283 282 282 283 283 284 282 282 281 282 285 284 283 284 284 284 284 284 284 284 284 284 285 285 285 285 285 285 286 285 285 284 284 284 285 285 285 284 284 284 284 285 285 285 286 286 286 285 285 285 285 284 282 283 284 284 284 287 289 290 291 288 288 288 287 288 287 287 286 285 285 286 287 287
284 284 284 284 284 284 285 284 283 284 284 284 284 285 284 283 284 284 284 284 284 284 284 284 284 285 285 286 286 286 285 285 284 284 284 285 285 285 284 285 284 284 284 284 284 285 286 286 286 286 286 287 287 288 287 287 287 288 288 289 290 289 288 288 287 287 286 287 286 285 284 285 285 285
283 284 284 284 285 284 284 285 286 284 284 285 284 284 284 284 283 283 283 284 284 283 284 284 285 285 285 285 285 285 284 284 285 285 285 285 285 285 285 285 284 285 284 283 284 285 285 287 288 287 287 288 287 287 286 284 283 285 286 288 288 288 288 289 289 288 287 286 286 285 284 284 284 285
284 284 284 283 284 285 285 286 285 284 283 283 283 283 283 282 282 283 283 282 283 283 284 284 284 285 285 285 285 285 284 284 284 284 285 285 284 285 285 285 284 284 284 283 284 285 288 289 288 288 287 287 286 283 282 283 283 285 286 287 287 288 288 288 289 290 289 287 286 285 284 284 285 284
283 284 283 282 282 284 285 284 284 284 283 283 282 282 281 282 282 281 281 282 282 283 283 284 284 285 285 285 285 285 285 284 284 285 285 285 285 284 284 285 285 285 285 285 286 287 287 287 288 287 286 286 285 285 283 284 285 285 286 286 286 286 287 287 288 288 288 288 288 287 287 285 284 282
283 283 283 283 283 283 283 283 284 283 281 281 281 281 281 281 280 281 281 281 281 282 283 283 284 284 284 285 285 285 285 285 285 285 285 285 285 285 285 285 285 285 285 285 285 286 287 287 287 287 285 285 285 285 284 284 285 285 286 286 285 285 285 286 286 286 286 286 287 287 288 287 287 287
283 283 282 280 278 277 278 280 279 281 281 281 281 281 280 280 280 280 280 280 281 282 282 283 283 284 284 284 284 284 284 285 285 285 285 285 285 285 285 285 285 285 285 285 285 285 286 286 287 287 286 286 286 285 285 285 285 286 286 285 284 285 285 285 285 284 285 285 286 286 286 286 286 286
Wind_Speed
6 6 6 7 6 5 5 5 5 5 4 4 4 4 6 5 6 3 4 3 2 5 4 4 5 7 7 6 6 6 7 10 10 7 8 8 7 13 16 17 17 16 17 16 15 15 15 16 15 16 16 16 16 15 14 13 12 11 11 10 8 7 7 8 9 11 14 17 18 16 13 10 10 14
5 6 5 5 5 4 5 4 4 5 5 5 5 5 4 5 6 4 4 1 1 2 3 4 4 5 7 6 6 6 6 11 10 8 8 8 8 12 14 15 15 16 16 15 15 15 14 15 15 14 14 14 14 14 14 14 13 12 11 9 8 7 7 7 8 10 12 13 14 15 13 12 11 10
6 6 6 5 5 5 6 5 5 4 5 5 5 5 4 4 6 6 3 3 1 1 4 3 3 4 5 6 5 5 5 8 9 7 7 9 12 12 11 14 14 14 15 15 14 15 14 14 14 15 13 12 12 14 13 13 13 12 11 10 9 9 8 8 8 10 11 11 11 12 13 13 14 12
6 6 7 5 6 5 5 5 5 6 5 5 6 5 6 4 4 5 4 5 3 1 1 1 3 5 3 6 7 6 5 6 9 7 6 8 9 9 8 12 13 13 13 13 13 14 14 13 14 14 14 14 14 14 14 13 12 12 11 10 10 8 8 6 7 9 9 9 9 7 9 11 13 13
5 6 6 6 5 4 6 5 5 6 6 6 6 5 6 6 3 5 4 4 3 0 1 1 3 4 3 5 6 6 5 6 6 6 6 7 7 7 6 7 11 12 12 12 13 13 13 14 13 13 13 13 13 14 14 13 12 12 11 10 9 8 8 8 7 8 9 10 8 7 7 7 8 10
3 5 6 5 4 3 6 5 6 6 6 6 6 4 6 5 4 2 4 3 3 1 1 3 2 3 3 4 5 6 6 6 5 7 6 5 7 7 6 6 7 12 10 11 12 12 13 13 13 13 13 12 12 13 13 14 13 12 11 11 11 11 10 8 7 7 8 10 10 8 7 7 7 7
4 5 4 4 4 3 6 5 5 4 5 4 6 5 4 5 4 2 2 4 3 3 1 1 2 3 2 2 5 5 3 4 3 5 6 5 5 4 5 6 5 9 8 9 10 11 12 12 12 12 12 12 12 12 12 12 13 12 12 11 11 11 11 10 8 6 6 8 9 8 6 6 8 10
5 6 5 5 5 4 6 5 5 4 4 5 5 5 3 5 4 3 4 4 4 2 3 1 1 2 3 2 2 3 2 3 3 4 3 2 4 4 5 5 5 6 8 7 9 10 10 11 12 12 12 11 11 11 12 12 12 12 11 11 11 11 11 11 12 10 7 8 8 8 8 7 8 9
5 5 5 6 6 5 6 4 5 4 6 4 5 5 4 5 4 3 3 3 3 4 4 1 1 2 1 1 1 3 4 4 2 3 4 3 4 4 4 4 4 6 5 5 8 9 9 10 11 12 12 11 10 10 11 12 12 11 11 12 12 12 10 10 11 12 10 8 7 8 7 8 8 9
5 6 6 6 7 7 7 6 5 5 6 5 5 6 4 4 4 5 4 3 4 4 3 3 2 1 1 2 2 3 4 4 5 4 3 1 2 4 5 4 4 4 3 3 4 5 7 9 11 11 11 11 10 10 11 11 12 11 11 12 12 12 11 9 9 10 10 9 8 7 7 8 8 8
5 4 4 5 6 7 6 7 7 7 6 5 6 6 6 5 5 5 3 3 4 3 3 1 1 1 1 1 2 2 3 3 3 7 8 4 2 3 6 7 4 3 2 2 4 6 7 9 9 10 10 11 10 10 11 11 11 12 12 12 13 12 12 10 9 9 9 9 8 7 6 7 8 8
5 4 4 5 6 7 7 7 7 8 7 5 6 5 6 6 6 5 4 3 3 3 3 2 1 1 1 2 1 2 1 2 1 4 4 8 10 8 4 4 7 2 3 5 5 5 6 7 7 8 7 9 10 10 10 11 11 12 13 13 13 13 12 10 9 9 9 8 7 7 7 7 8 9
5 6 7 8 7 7 6 9 9 9 8 7 6 4 5 6 5 5 4 3 3 2 2 2 0 1 3 2 3 4 4 5 5 4 3 3 4 7 8 5 2 1 5 6 6 6 6 8 6 6 6 6 9 7 9 9 10 12 13 13 13 13 12 12 11 9 9 8 7 7 7 7 7 7
6 7 6 5 7 8 8 8 9 10 11 9 8 9 7 6 5 5 4 3 3 3 1 0 1 4 4 3 3 2 2 2 2 3 4 5 5 5 6 4 1 2 6 10 10 5 4 7 6 5 7 5 6 6 7 7 9 11 13 12 12 12 12 11 10 9 9 7 5 6 6 5 5 6
7 6 5 4 4 5 5 6 9 10 11 9 8 11 9 5 5 5 4 3 3 3 2 1 1 1 4 3 1 2 2 1 3 3 4 4 5 6 8 11 5 4 8 8 9 10 5 5 8 8 7 7 6 7 7 11 12 11 11 12 12 11 10 10 10 10 8 5 4 4 4 3 3 3
6 6 5 5 4 5 6 6 7 8 8 7 8 9 9 9 9 5 3 4 2 3 3 2 3 1 2 2 2 2 2 3 3 2 3 3 4 6 6 5 7 5 7 9 8 9 4 5 7 7 7 7 6 7 11 12 10 10 10 10 10 9 10 10 9 8 7 5 3 2 2 2 1 2
6 5 5 5 4 4 7 7 7 7 7 9 12 11 11 10 9 8 8 5 3 3 3 3 1 3 2 1 2 1 1 1 4 4 4 4 4 4 5 6 7 7 5 5 7 10 6 4 6 8 7 6 6 8 10 12 9 8 9 9 9 9 7 8 8 8 7 6 5 3 2 2 3 3
6 6 5 5 4 3 5 5 7 7 8 7 7 7 6 5 6 8 8 7 7 4 3 4 3 3 3 2 3 2 1 1 4 4 5 4 5 5 6 7 8 7 5 4 5 8 6 3 5 6 7 7 6 7 10 14 10 6 9 9 9 7 7 6 7 7 7 7 7 6 4 3 3 3
4 5 5 5 4 4 4 3 5 8 8 8 6 6 5 5 5 5 5 4 4 4 3 4 4 4 3 3 2 3 2 4 4 4 5 6 6 6 7 6 6 6 4 3 2 7 6 6 5 6 7 7 7 6 9 13 9 6 8 9 8 7 5 5 7 7 8 7 7 7 8 7 5 4
4 2 3 4 5 5 5 6 10 8 7 8 9 7 5 5 4 4 2 3 3 3 3 2 2 2 3 3 3 3 3 3 3 3 4 4 4 4 5 7 5 5 2 3 5 6 6 5 6 7 7 7 6 6 5 11 8 5 7 9 9 7 5 5 5 6 7 7 7 6 6 6 6 6
5 5 5 7 6 6 5 6 10 11 9 8 7 6 6 3 3 3 1 4 5 4 3 1 0 2 3 4 5 6 6 4 3 2 2 5 3 4 7 6 5 6 3 3 5 5 6 4 6 9 7 6 7 6 6 5 5 6 7 9 10 9 7 6 6 6 6 7 7 6 6 6 5 5
6 7 11 7 7 8 6 7 10 9 9 8 7 8 7 5 4 3 1 1 1 1 1 1 3 3 2 3 4 5 5 4 3 2 4 4 3 5 5 8 6 7 4 6 2 3 6 7 5 9 8 6 4 4 6 3 4 5 8 8 7 9 9 9 8 7 7 6 7 6 6 6 6 3
6 6 7 10 8 8 7 10 9 9 8 7 6 6 6 5 4 2 2 2 2 3 3 2 5 3 3 2 3 4 7 7 4 3 4 3 3 5 6 6 8 9 3 3 1 6 7 6 6 5 10 9 6 5 2 4 8 9 8 7 7 10 10 11 9 8 9 8 7 6 6 7 6 3
7 7 7 8 10 11 11 11 11 10 10 8 5 4 4 4 4 2 2 2 1 1 1 2 2 3 3 4 3 4 4 5 4 4 3 3 4 5 6 6 7 10 8 2 4 9 8 6 8 4 6 10 8 5 6 8 6 4 4 6 6 9 10 10 9 9 9 8 8 6 5 7 6 3
7 6 6 5 8 11 11 11 12 11 10 8 6 5 5 3 3 2 2 3 3 2 2 2 3 3 3 3 3 3 4 4 4 4 5 4 4 5 6 7 8 11 8 6 8 7 9 8 11 9 9 8 11 13 9 8 5 5 6 5 8 9 7 6 5 5 5 8 9 8 6 6 7 4
6 5 5 5 7 10 11 10 10 10 10 9 6 6 5 5 5 2 1 0 1 1 2 2 3 3 3 4 4 4 4 5 5 5 5 5 6 5 6 7 10 12 12 4 5 7 11 11 9 10 10 10 12 10 13 11 10 8 8 7 5 6 6 7 5 5 5 4 3 4 4 6 6 6
6 5 5 5 7 9 10 10 9 9 10 7 6 7 6 5 4 2 2 1 1 2 2 2 3 4 4 4 5 5 6 5 6 6 6 7 7 7 7 8 8 10 11 10 8 9 9 12 10 10 12 11 14 12 11 12 9 3 4 4 5 5 5 5 6 7 6 5 4 4 5 7 8 8
6 6 6 5 8 10 10 11 10 10 8 7 8 7 7 5 4 2 2 2 2 2 2 3 4 5 4 5 6 7 8 9 9 10 9 8 8 8 8 9 10 10 11 10 9 9 9 10 11 11 12 13 13 14 14 10 10 9 10 7 5 5 5 5 6 6 6 6 5 4 3 3 3 3
6 6 9 11 12 12 12 12 11 9 9 9 8 7 6 4 3 3 2 2 2 3 4 4 5 5 5 7 8 9 9 10 10 9 9 8 9 8 9 9 9 9 8 8 9 10 10 10 11 11 11 11 12 13 12 14 12 12 9 9 9 7 6 6 6 6 7 6 5 5 5 4 3 3
12 12 13 13 12 10 8 7 6 5 5 7 7 6 4 3 3 2 2 3 3 4 4 6 7 8 8 8 9 9 9 9 10 10 10 10 10 9 9 10 9 8 8 9 10 10 10 11 11 11 12 11 11 13 12 13 13 11 9 9 10 8 7 7 6 5 5 6 6 5 4 3 5 3
8 9 8 8 9 9 10 9 6 6 4 5 4 3 2 2 2 2 2 2 3 4 5 6 7 8 8 8 8 9 9 10 10 10 10 10 10 10 10 10 11 11 11 11 10 9 9 9 10 10 11 11 10 11 12 12 13 12 11 9 9 10 7 5 3 4 4 5 6 4 4 5 5 4
7 7 7 8 5 5 6 6 5 5 3 2 2 3 3 3 2 2 3 4 3 3 4 4 5 6 7 8 9 8 8 8 7 7 9 10 10 9 9 8 10 11 11 10 10 10 8 9 9 9 9 10 11 12 11 11 12 11 10 9 9 11 9 10 10 9 8 5 2 5 6 4 4 3
7 7 7 4 5 4 4 4 3 3 3 2 2 3 4 3 3 2 2 3 4 3 3 5 6 6 7 8 7 8 8 8 9 9 10 10 10 9 9 10 11 11 12 12 10 10 9 8 8 9 11 11 12 13 11 11 10 8 9 10 9 10 9 9 8 9 5 2 4 6 7 5 3 3
6 4 4 4 4 3 3 3 3 1 1 1 2 2 3 3 3 3 3 3 4 3 4 5 6 6 7 7 8 9 9 10 9 9 8 9 9 9 9 10 11 10 10 11 11 11 10 10 10 9 9 10 9 11 11 12 12 11 10 8 8 9 8 7 7 7 7 6 7 7 7 8 4 3
5 5 5 4 3 3 3 3 2 0 0 1 2 2 2 2 3 2 3 4 3 3 4 5 6 6 7 8 8 8 9 11 11 10 9 9 9 9 10 10 11 10 10 11 11 10 10 10 9 10 9 9 10 10 12 12 11 11 10 10 9 9 9 7 6 7 7 6 5 7 8 7 6 3
4 4 5 4 4 3 3 2 1 1 1 1 2 2 2 3 2 3 4 4 4 4 4 6 7 7 7 7 8 8 9 9 10 10 10 8 8 9 9 10 10 11 10 10 10 9 7 8 7 8 9 10 10 11 8 12 15 8 10 9 8 8 7 7 6 6 6 6 6 6 7 8 5 3
5 3 4 4 3 3 3 2 2 1 2 2 2 2 2 3 4 3 5 5 4 4 4 5 6 6 8 7 8 9 9 9 10 10 9 8 7 8 9 9 9 10 10 10 9 8 5 7 6 7 9 10 10 10 10 3 10 13 7 8 7 6 6 5 4 4 5 6 5 6 6 5 4 1
5 3 3 4 5 4 2 2 2 1 1 1 2 2 2 3 4 5 5 4 4 4 4 5 6 6 7 7 9 9 9 9 8 9 9 8 9 9 8 9 10 10 11 11 9 8 6 7 8 8 8 9 10 10 10 6 4 3 4 6 6 5 3 3 3 4 4 3 5 4 3 4 2 2
6 5 5 4 4 4 3 3 2 1 2 2 2 2 3 4 4 4 4 4 5 5 5 5 6 6 7 8 8 8 8 9 9 9 9 9 8 9 9 9 10 9 9 10 9 7 6 7 8 7 8 9 9 8 8 9 8 4 1 4 4 4 5 3 5 4 4 2 1 3 3 3 6 7
6 5 6 5 4 3 3 2 1 1 1 2 2 3 3 4 4 4 5 5 6 5 5 6 7 8 8 7 8 8 7 9 9 9 9 9 8 8 9 8 9 9 9 10 10 8 6 7 7 7 7 8 8 8 6 6 6 5 6 8 12 11 8 4 5 3 2 2 3 3 4 2 3 0
5 5 3 4 4 3 2 1 1 1 2 2 3 3 3 3 4 4 4 5 5 6 6 7 7 7 9 9 8 7 8 8 9 10 9 9 9 9 10 10 9 8 8 10 10 10 9 7 7 9 9 6 6 4 5 6 7 6 3 2 2 3 3 5 5 4 2 3 4 3 4 3 3 2
4 4 3 3 3 3 2 1 1 1 2 2 2 3 3 3 3 6 6 5 5 5 6 6 7 8 8 8 8 8 8 9 9 10 9 9 10 9 9 8 8 7 7 9 11 10 9 7 5 6 4 4 4 4 6 7 7 7 4 1 1 3 6 6 10 9 6 6 6 4 3 2 2 2
4 3 3 3 1 1 2 1 1 1 2 2 2 3 3 4 4 4 4 5 5 6 6 7 8 8 8 8 8 8 8 9 9 9 10 10 9 10 10 8 8 8 8 9 9 9 7 6 5 4 4 4 4 4 6 6 6 6 5 4 1 1 3 8 8 7 8 6 4 3 2 2 4 3
3 3 2 2 1 1 0 1 1 1 2 2 2 2 2 3 5 4 4 4 5 6 7 8 8 8 8 8 8 8 8 8 8 9 10 10 10 9 9 9 9 8 7 7 8 7 5 5 4 4 4 4 4 4 6 5 5 4 4 1 1 2 4 2 4 7 9 11 10 7 7 4 2 1
3 3 3 1 1 0 1 1 1 2 2 2 2 2 3 3 3 4 4 4 5 6 7 7 8 8 8 8 8 9 9 9 9 9 8 8 8 8 8 8 8 8 8 7 7 8 6 4 4 2 3 4 4 4 4 4 4 3 1 2 3 3 2 1 4 5 5 5 8 7 8 10 12 15
Wind_Direction
118 112 115 115 121 118 109 99 103 112 101 101 105 99 106 124 119 96 57 354 21 17 31 33 7 25 21 14 16 18 20 16 16 22 30 27 26 27 37 38 39 40 39 39 37 34 30 29 30 30 29 25 23 21 20 11 356 339 330 318 305 295 291 282 274 273 275 276 277 280 281 274 247 233
117 112 98 105 104 123 97 102 107 106 112 109 103 106 109 115 109 148 115 88 226 2 24 50 1 1 18 9 18 23 20 12 16 18 25 28 22 23 34 36 36 37 35 36 36 34 30 26 23 21 23 22 21 18 17 16 13 1 348 340 327 318 305 287 282 283 281 279 278 276 277 267 253 229
111 104 94 88 89 95 99 96 85 82 99 102 99 94 96 84 118 123 122 104 324 157 30 348 12 1 359 13 14 18 19 15 17 20 17 25 17 23 24 29 32 34 33 32 31 30 28 24 19 16 12 10 11 10 8 10 12 12 8 0 356 347 332 318 297 287 285 286 284 285 281 273 269 257
113 110 104 104 109 107 100 89 89 91 83 100 100 101 99 89 106 120 107 106 89 211 61 24 335 9 354 16 17 15 12 14 21 23 24 16 13 21 15 14 23 27 31 27 27 26 24 21 18 14 9 7 7 6 3 3 6 9 9 11 9 0 350 331 314 297 290 287 289 298 298 290 281 273
114 114 117 119 114 122 101 109 103 94 103 97 91 100 100 98 109 114 115 121 140 360 189 16 14 345 356 34 13 13 10 9 13 20 24 19 22 21 11 6 11 18 23 24 22 22 19 16 14 11 8 5 3 2 360 357 357 0 3 8 6 4 5 351 332 315 301 295 288 282 281 292 297 289
100 121 121 126 114 101 115 123 115 119 120 114 107 100 107 114 111 174 113 129 129 184 316 10 358 10 4 50 19 15 2 5 6 20 15 22 23 16 7 5 4 8 16 19 19 18 14 11 7 4 2 360 359 357 355 352 351 352 355 1 2 3 358 345 338 318 303 299 294 286 273 272 275 281
135 126 136 153 126 125 101 98 111 118 110 109 106 109 101 105 102 56 91 120 117 144 158 215 351 359 347 64 20 12 3 357 357 14 13 12 14 16 6 1 353 358 8 12 15 11 8 6 359 356 354 351 351 352 350 348 346 346 349 353 356 355 353 347 329 298 275 285 281 282 276 262 265 270
164 162 155 177 162 139 121 128 118 103 104 105 109 109 95 103 102 72 57 65 128 156 107 340 51 343 7 333 9 9 10 29 15 22 349 347 13 5 3 356 351 347 353 1 7 4 1 356 352 347 344 341 341 344 343 342 339 340 343 347 348 347 348 347 342 330 305 297 291 288 287 282 268 257
179 174 182 177 168 152 132 146 134 134 115 116 113 115 114 104 102 76 68 68 89 120 120 123 258 309 294 305 304 15 6 3 15 6 360 347 1 4 356 337 338 332 341 344 352 354 349 345 343 337 335 332 332 334 335 334 334 334 337 340 342 341 341 347 345 338 326 301 285 289 287 284 278 270
200 192 198 181 174 171 162 171 154 143 138 132 121 118 118 116 104 98 75 72 79 99 115 132 78 291 360 345 312 347 2 344 351 358 358 305 354 358 355 360 339 334 335 340 349 338 336 339 331 327 324 322 322 327 328 329 328 329 332 335 334 334 334 339 343 336 328 315 295 279 278 279 271 268
201 213 222 198 189 185 181 161 163 156 151 156 155 151 145 143 125 115 115 103 95 97 114 102 112 293 229 44 342 345 349 331 39 356 339 352 69 26 355 336 336 319 314 317 308 318 321 319 319 316 310 309 313 319 322 324 323 325 329 330 327 328 329 330 334 326 318 313 300 284 270 261 263 260
195 204 219 232 207 199 186 172 169 161 163 163 155 160 140 147 132 133 137 122 127 123 106 90 104 330 293 326 267 291 339 9 70 39 9 334 335 343 352 320 313 318 321 330 331 323 318 312 305 297 293 296 300 307 315 319 321 325 327 325 324 326 326 327 325 313 305 304 298 285 272 263 259 259
219 210 208 219 217 211 200 189 176 178 161 154 154 166 152 147 126 115 126 145 130 112 88 72 93 349 344 335 342 350 21 24 357 333 354 307 308 314 321 322 270 334 339 327 315 326 333 320 324 324 320 321 312 305 307 314 321 325 323 322 328 331 331 329 321 305 301 302 302 286 272 267 269 264
235 236 233 230 217 209 203 197 191 176 172 169 161 166 169 149 143 151 149 152 151 123 118 77 33 352 331 334 352 346 351 316 319 336 345 331 322 311 290 255 193 25 1 336 327 332 342 319 317 329 323 314 309 307 317 328 329 324 326 335 338 337 333 324 312 303 302 310 304 289 276 266 260 261
247 246 235 242 237 225 205 186 188 183 180 166 150 155 160 144 137 145 119 171 158 152 181 157 131 241 300 317 336 311 324 339 351 340 335 322 328 345 350 329 331 113 5 335 317 316 342 328 326 329 325 319 316 312 312 322 327 333 342 341 338 333 323 320 314 310 306 310 299 293 290 272 253 227
237 241 239 229 219 210 196 166 174 181 172 152 130 110 91 84 70 79 139 151 145 178 166 207 227 169 241 285 323 320 332 328 324 317 314 310 322 320 315 295 295 327 3 324 313 298 325 330 321 322 321 319 313 310 308 315 327 338 338 335 327 332 335 330 327 326 327 329 327 299 285 267 222 204
243 249 243 240 220 201 175 160 163 145 118 97 100 101 91 76 80 84 76 67 123 154 138 179 187 195 178 227 242 224 279 284 314 317 317 312 299 289 284 282 299 310 331 307 300 304 318 338 331 321 315 313 311 309 311 313 321 329 329 322 323 330 337 339 336 335 336 339 344 352 352 352 348 355
225 220 210 204 210 181 165 158 148 129 117 115 100 81 70 76 66 67 74 82 79 91 136 151 172 212 180 215 218 227 186 273 288 300 295 303 298 288 279 293 290 288 294 284 299 292 303 344 327 309 309 311 306 303 304 303 306 316 320 323 318 322 337 341 335 328 329 331 332 332 326 323 323 324
233 211 202 195 180 143 119 106 131 122 119 104 95 87 78 72 66 63 67 76 102 105 116 132 150 177 204 231 238 250 232 241 246 260 269 281 284 285 289 273 249 271 256 254 279 289 310 316 307 299 301 302 300 298 297 293 300 299 310 317 312 312 327 331 332 328 324 323 326 328 331 329 325 313
37 63 108 110 99 98 89 101 112 122 120 111 104 97 98 89 74 66 28 47 72 98 118 129 144 174 194 214 233 248 253 252 257 270 277 286 269 278 291 296 305 285 273 251 275 278 289 300 294 300 298 294 290 285 282 290 296 286 298 310 310 304 310 317 319 320 322 322 322 324 323 322 323 326
37 56 83 93 96 87 84 114 121 124 118 105 110 110 105 100 108 102 39 50 44 51 57 41 20 252 242 254 260 269 265 258 262 248 275 275 281 301 300 292 297 292 321 282 253 268 285 292 305 305 300 288 290 291 279 281 307 288 295 305 307 300 298 297 296 301 307 309 311 309 302 298 302 297
45 61 82 94 94 96 88 97 100 107 107 101 109 119 127 127 107 96 69 91 74 59 227 157 304 263 273 269 286 270 267 266 233 222 278 297 306 285 277 291 299 296 293 274 251 253 275 307 301 304 301 284 232 262 275 296 287 287 309 309 298 300 304 301 288 283 285 294 302 305 309 307 299 294
54 54 59 78 91 94 101 92 87 89 96 101 116 127 116 111 115 134 113 65 33 9 7 337 355 345 339 329 313 315 321 316 297 235 255 274 267 282 286 288 303 306 279 240 159 298 300 310 299 306 316 308 293 254 265 332 327 317 310 301 301 296 304 305 292 269 272 275 280 295 311 310 300 305
56 57 61 60 71 80 80 77 78 77 88 104 107 100 109 120 109 137 129 123 136 142 134 291 310 287 295 307 319 317 314 304 291 285 262 251 255 271 280 277 283 281 283 247 313 294 292 282 288 299 293 302 301 290 297 290 269 271 278 286 276 288 292 295 293 276 263 260 261 266 280 296 293 286
100 83 67 62 71 79 79 79 78 78 75 80 83 75 85 70 110 108 46 43 36 12 342 328 318 309 311 307 304 292 288 283 282 282 276 273 257 266 279 282 279 281 268 266 274 280 288 294 293 294 283 271 276 292 291 289 264 250 269 272 282 286 286 286 278 279 263 254 254 254 252 259 270 259
88 95 95 84 88 89 86 81 78 76 75 73 75 74 89 91 80 66 70 107 32 315 333 302 296 296 299 305 300 294 291 291 290 283 281 275 274 263 258 265 280 288 287 277 259 273 285 286 284 287 285 283 283 282 293 292 290 278 262 261 269 278 281 282 280 275 271 268 259 238 240 239 255 253
122 110 98 90 88 89 88 83 79 80 79 73 73 80 75 76 99 93 84 63 11 328 315 306 305 307 308 307 306 301 302 300 293 292 286 286 282 277 270 264 257 268 283 286 274 268 267 277 276 273 280 282 286 289 282 290 293 271 254 251 260 259 263 268 275 273 268 266 262 253 244 247 250 257
123 120 109 104 98 95 92 90 87 82 79 86 83 80 87 86 81 84 57 34 2 315 310 319 317 314 306 303 309 313 315 312 308 304 299 292 283 276 278 274 270 269 275 274 265 255 257 266 275 271 273 281 283 286 291 285 285 284 284 280 260 265 265 259 263 271 273 263 264 254 255 254 228 231
108 113 111 106 103 102 98 94 88 79 74 74 73 70 63 64 53 52 30 356 337 338 330 317 306 297 305 313 309 311 311 308 304 302 302 294 286 268 262 263 262 267 268 265 263 263 262 265 272 276 275 273 275 279 281 287 291 287 282 283 280 267 260 257 254 257 264 266 260 247 241 243 232 205
112 111 108 104 100 93 92 86 77 78 72 64 59 53 46 45 39 19 12 347 349 326 319 316 315 315 315 314 314 309 307 311 309 311 309 311 306 303 301 298 291 269 255 250 261 264 265 269 270 274 275 273 271 277 281 286 283 284 278 267 273 275 258 256 246 241 249 258 257 252 245 226 244 205
103 98 97 99 97 92 84 83 79 78 66 58 41 24 24 16 1 353 350 325 304 298 311 314 312 314 311 308 308 315 317 312 310 307 302 302 302 302 301 297 296 295 291 288 278 263 261 259 266 267 272 275 272 269 275 276 278 280 275 265 262 265 268 264 260 252 249 252 261 270 269 252 254 237
99 100 96 86 66 78 62 62 43 41 48 54 35 5 360 341 335 320 306 288 263 267 263 272 281 296 309 314 311 305 299 292 282 288 301 302 300 297 293 288 292 296 296 293 289 275 246 248 254 255 253 263 270 278 275 273 273 274 274 269 266 269 271 270 272 270 253 238 255 262 257 234 246 236
89 94 89 85 76 66 79 65 61 36 30 14 6 353 339 334 317 304 298 310 297 286 288 303 304 303 305 307 300 299 298 299 303 308 308 303 299 299 293 289 294 297 299 298 294 293 286 271 244 244 263 268 268 269 270 270 267 264 269 271 271 268 266 261 259 263 255 227 248 265 273 257 233 242
111 105 103 110 109 105 97 93 79 51 360 341 342 333 304 290 287 288 280 275 281 282 275 289 296 296 301 300 304 307 307 307 306 302 292 298 296 293 291 291 290 290 288 291 294 293 293 290 284 271 258 254 252 250 255 262 269 270 263 260 255 261 259 257 252 249 250 240 249 262 261 265 242 229
115 125 117 116 109 116 119 126 152 195 264 284 284 282 281 280 280 279 285 283 279 282 287 294 294 293 296 300 304 306 310 310 309 309 303 299 292 288 287 288 288 288 288 287 288 288 287 289 286 284 283 281 277 264 229 234 260 258 265 259 259 257 263 253 251 246 236 243 222 243 263 269 260 229
115 123 127 135 140 142 127 173 203 219 233 256 263 278 302 304 294 292 300 299 295 289 288 302 304 303 302 303 304 304 305 305 306 306 305 299 293 289 285 281 281 283 281 281 282 281 275 277 274 276 285 289 290 289 288 214 222 247 256 265 263 258 258 260 250 248 241 242 220 224 244 257 267 226
126 137 132 143 157 158 159 181 198 224 235 253 275 283 289 295 299 299 290 286 279 275 276 292 298 304 305 304 305 305 307 311 309 305 298 295 290 285 284 283 281 283 283 281 277 275 263 270 262 259 274 281 281 282 281 301 230 229 235 255 263 250 256 262 260 259 242 236 238 220 235 245 251 192
144 143 148 157 171 178 170 178 202 234 252 267 278 286 274 283 295 293 291 287 286 299 303 305 297 297 304 306 309 311 311 306 300 297 295 294 295 292 287 287 288 286 286 284 281 274 261 263 259 256 259 267 279 278 288 281 277 255 241 244 264 283 288 272 258 257 262 224 235 244 229 231 223 144
139 154 162 167 178 174 182 204 194 224 263 284 285 293 312 306 296 293 299 309 323 321 315 309 308 308 307 307 307 306 307 307 304 300 297 296 290 289 288 287 287 285 286 289 285 272 261 253 254 252 247 259 261 271 280 287 281 278 228 213 246 271 261 246 267 264 265 249 110 62 49 61 83 95
154 155 159 160 176 182 196 198 214 228 269 275 293 313 303 298 298 307 320 324 327 322 316 308 305 308 306 307 308 307 299 296 295 295 294 292 286 284 283 282 284 290 291 289 291 287 271 260 251 249 246 246 255 265 272 279 284 284 277 264 239 234 253 251 254 253 257 182 147 134 125 134 115 137
147 151 171 170 164 183 188 215 232 263 283 301 313 298 293 289 306 317 313 317 321 320 319 313 311 310 309 308 306 305 301 297 297 297 293 291 288 288 288 288 284 278 281 284 284 286 283 273 257 246 247 256 260 280 278 269 275 278 262 260 360 338 287 239 235 222 205 152 157 144 145 141 137 135
154 159 166 168 175 193 210 230 268 292 313 315 302 300 298 307 311 309 309 314 316 312 307 305 306 306 305 306 307 306 301 300 299 297 294 296 297 293 289 284 280 280 276 281 286 287 287 288 279 267 255 252 250 245 257 268 281 289 290 314 285 348 344 306 235 221 174 156 152 146 120 108 109 124
153 160 167 185 189 200 242 281 300 323 311 301 304 306 316 324 324 325 330 331 325 318 313 313 311 306 302 305 304 305 301 297 296 297 298 297 293 294 295 290 286 284 281 279 280 283 284 286 281 274 263 241 239 237 258 270 280 287 297 305 336 11 13 19 53 99 88 87 74 96 137 157 157 178
155 157 175 168 174 189 276 307 336 321 297 303 304 311 322 327 322 320 326 324 324 318 313 313 311 306 303 302 302 301 297 296 296 297 298 295 293 289 290 290 289 286 284 276 284 287 285 288 280 271 259 249 240 237 249 259 269 281 295 318 64 67 68 45 51 59 61 45 34 55 65 59 35 345
160 165 166 176 171 234 257 318 320 302 311 314 320 322 321 320 313 315 320 324 321 315 309 305 305 303 302 304 307 307 303 298 297 293 289 289 291 293 291 290 289 289 285 285 289 294 296 291 292 267 251 256 250 243 251 254 269 291 287 110 97 80 62 47 69 69 58 63 18 45 88 86 89 94